Orbital Elements at Epoch 2459200.5 (2020-Dec-17.0) TDB
Reference: JPL 27 (heliocentric ecliptic J2000)
Element | Value | Uncertainty (1-sigma) | Units |
e | .1313592451561248 | 4.6192e-08 | |
a | 2.440315057727709 | 1.0835e-08 | au |
q | 2.119757113801472 | 1.1288e-07 | au |
i | 7.62256032771439 | 3.694e-06 | deg |
node | 62.97247856042797 | 3.573e-05 | deg |
peri | 321.1111594281942 | 3.8589e-05 | deg |
M | 210.7202803300343 | 1.4564e-05 | deg |
tp | 2459777.885118897297 (2022-Jul-17.38511890) | 5.7471e-05 | TDB |
period | 1392.41045778067 3.81 | 9.2734e-06 2.539e-08 | d yr |
n | .2585444528862527 | 1.7219e-09 | deg/d |
Q | 2.760873001653947 | 1.2258e-08 | au |
|
| | Orbit Determination Parameters
Additional Information
|